CW2840 Weather Reports


time (UTC)temp
F
wind
direction
speed
knots
gust
knots
rain 1hr
in
rain 24hr
in
rain mn
in
humidity
%
barometer
mb
20260505040050 74 118 4.3 19.1 0.00 0.00 0.00 71 1010.8
20260505035406 74 165 6.1 17.4 0.00 0.00 0.00 71 1010.8
20260505035149 74 186 5.2 11.3 0.00 0.00 0.00 71 1011.0
20260505032248 74 141 5.2 12.2 0.00 0.00 0.00 71 1011.0
20260505030050 74 182 3.5 13.9 0.00 0.00 0.00 70 1010.9
20260505024549 74 172 4.3 11.3 0.00 0.00 0.00 70 1010.7
20260505023049 75 173 3.5 11.3 0.00 0.00 0.00 69 1010.7
20260505022244 75 161 5.2 13.9 0.00 0.00 0.00 69 1010.7
20260505020750 75 148 4.3 9.6 0.00 0.00 0.00 69 1010.5
20260505014548 75 147 3.5 9.6 0.00 0.00 0.00 69 1010.4
20260505013047 75 175 4.3 7.8 0.00 0.00 0.00 69 1010.2
20260505011548 75 188 3.5 7.8 0.00 0.00 0.00 68 1010.2
20260505010047 76 171 2.6 9.6 0.00 0.00 0.00 66 1010.3
20260505004546 77 168 1.7 7.8 0.00 0.00 0.00 65 1010.2
20260505003048 77 166 5.2 7.8 0.00 0.00 0.00 65 1010.1
20260505001546 77 178 3.5 7.8 0.00 0.00 0.00 64 1010.1
20260505000740 78 179 3.5 9.6 0.00 0.00 0.00 63 1010.3
20260504234545 79 158 5.2 13.9 0.00 0.00 0.00 61 1010.3
20260504233045 79 161 5.2 13.9 0.00 0.00 0.00 59 1010.3
20260504231544 80 186 3.5 13.9 0.00 0.00 0.00 57 1010.6
20260504230044 80 172 1.7 9.6 0.00 0.00 0.00 55 1010.7
20260504224545 81 175 5.2 13.9 0.00 0.00 0.00 55 1010.7
20260504223044 81 185 6.1 11.3 0.00 0.00 0.00 53 1010.9
20260504221543 81 169 3.5 9.6 0.00 0.00 0.00 53 1011.0
20260504220738 81 165 5.2 9.6 0.00 0.00 0.00 53 1011.0
20260504214542 82 141 4.3 11.3 0.00 0.00 0.00 52 1011.1
20260504213042 82 141 3.5 7.8 0.00 0.00 0.00 51 1011.3
20260504211543 82 113 4.3 12.2 0.00 0.00 0.00 50 1011.5
20260504210042 82 220 6.1 13.9 0.00 0.00 0.00 50 1011.7
20260504204541 83 162 2.6 11.3 0.00 0.00 0.00 51 1012.1
20260504203041 83 176 2.6 13.9 0.00 0.00 0.00 50 1012.2
20260504201541 83 241 4.3 9.6 0.00 0.00 0.00 47 1012.5
20260504200740 83 216 4.3 11.3 0.00 0.00 0.00 50 1012.8
20260504194539 82 171 4.3 12.2 0.00 0.00 0.00 49 1013.1
20260504193038 81 224 7.0 12.2 0.00 0.00 0.00 50 1013.2
20260504191538 82 107 3.5 9.6 0.00 0.00 0.00 51 1013.3
20260504190038 82 152 4.3 11.3 0.00 0.00 0.00 50 1013.8
20260504184538 82 159 7.8 12.2 0.00 0.00 0.00 49 1013.8
20260504183037 80 175 5.2 12.2 0.00 0.00 0.00 51 1013.9
20260504181536 80 148 5.2 11.3 0.00 0.00 0.00 51 1014.1
20260504180037 81 171 4.3 12.2 0.00 0.00 0.00 52 1014.3
20260504174536 80 123 5.2 11.3 0.00 0.00 0.00 48 1014.4
20260504173035 80 93 7.8 15.6 0.00 0.00 0.00 50 1014.7
20260504171533 79 162 5.2 20.9 0.00 0.00 0.00 54 1014.9
20260504081504 60 161 0.0 0.0 0.00 0.00 0.00 74 1016.5
20260504050703 64 161 0.0 1.7 0.00 0.00 0.00 63 1018.1